,,Stat6,,Stat2,,Stat8,,Stat9,,Stat10,,Wind1,,Wind1,
time,status,PA1M_AVG,status,PR1M_SUM,status,RH1M_AVG,status,SR1M_AVG,status,TA1M_AVG,status,W1dAve1m,status,W1sAve1m,
2006-05-23, 09:50:00,VALID,918.574,VALID,0,VALID,54.7761,VALID,0,VALID,26.7106,VALID,359,VALID,0.887305,
2006-05-23, 09:51:00,VALID,918.568,VALID,0,VALID,54.1691,VALID,0.101885,INVALID,0,VALID,360,VALID,0.996366,
2006-05-23, 09:52:00,VALID,918.571,VALID,0,VALID,54.2759,VALID,4.82256,VALID,24.8297,VALID,4,VALID,1.52947,
2006-05-23, 09:53:00,VALID,918.573,VALID,0,VALID,56.1248,VALID,8.55834,VALID,26.3981,VALID,353,VALID,1.43229,
2006-05-23, 09:54:00,VALID,918.565,VALID,0,VALID,55.0719,VALID,0,VALID,26.8185,VALID,12,VALID,1.012,
2006-05-23, 09:55:00,VALID,918.543,VALID,0,VALID,53.9834,VALID,0,VALID,21.882,VALID,348,VALID,1.42076,
2006-05-23, 09:56:00,VALID,918.533,VALID,0,VALID,55.0033,VALID,42.7407,VALID,25.3097,VALID,350,VALID,1.41276,
2006-05-23, 09:57:00,VALID,918.528,VALID,0,VALID,57.5388,VALID,79.8099,VALID,24.5589,VALID,18,VALID,1.7875,
2006-05-23, 09:58:00,VALID,918.52,VALID,0,VALID,58.9872,VALID,79.6231,VALID,23.4779,VALID,7,VALID,0.881479,
2006-05-23, 09:59:00,VALID,918.496,VALID,0,VALID,56.1935,VALID,0.0169808,VALID,23.6811,VALID,14,VALID,0.422805,
2006-05-23, 10:00:00,VALID,918.48,VALID,0,VALID,58.6248,VALID,68.9422,VALID,22.1161,VALID,8,VALID,0.228795,
2006-05-23, 10:01:00,VALID,918.458,VALID,0,VALID,55.6035,VALID,0,VALID,22.6234,VALID,287,VALID,0.401105,
2006-05-23, 10:02:00,VALID,918.427,VALID,0,VALID,55.798,VALID,43.1653,VALID,26.9099,VALID,283,VALID,0.383575,
2006-05-23, 10:03:00,VALID,918.413,VALID,0,VALID,56.3308,VALID,5.46783,VALID,-3.99689,VALID,310,VALID,0.303267,
2006-05-23, 10:04:00,VALID,918.387,VALID,0,VALID,55.1736,VALID,-0.0849042,INVALID,0,VALID,327,VALID,0.514137,
2006-05-23, 10:05:00,VALID,918.386,VALID,0,VALID,56.7746,VALID,0.0339617,VALID,-0.0016,VALID,3,VALID,0.512536,
2006-05-23, 10:06:00,VALID,918.384,VALID,0,VALID,57.1828,VALID,4.17728,VALID,25.393,VALID,322,VALID,0.605263,
2006-05-23, 10:07:00,VALID,918.374,VALID,0,VALID,53.5206,VALID,50.6878,VALID,25.1483,VALID,263,VALID,0.404615,
2006-05-23, 10:08:00,VALID,918.368,VALID,0,VALID,55.1787,VALID,0.0169808,VALID,24.1467,VALID,233,VALID,0.501028,
2006-05-23, 10:09:00,VALID,918.355,VALID,0,VALID,57.1306,VALID,44.0653,VALID,24.8578,VALID,273,VALID,0.527344,
2006-05-23, 10:10:00,VALID,918.355,VALID,0,VALID,57.6724,VALID,139.922,VALID,24.3375,VALID,260,VALID,0.500174,
2006-05-23, 10:11:00,VALID,918.339,VALID,0,VALID,58.9668,VALID,62.863,VALID,25.2547,VALID,287,VALID,0.398438,
2006-05-23, 10:12:00,VALID,918.324,VALID,0,VALID,57.4371,VALID,21.3789,VALID,24.0814,VALID,290,VALID,0.105015,
2006-05-23, 10:13:00,VALID,918.311,VALID,0,VALID,58.0386,VALID,61.7423,VALID,25.1775,VALID,330,VALID,0.189787,
2006-05-23, 10:14:00,VALID,918.308,VALID,0,VALID,56.3524,VALID,0.0509425,VALID,-0.0016,VALID,274,VALID,0.531064,
2006-05-23, 10:15:00,VALID,918.303,VALID,0,VALID,55.6073,VALID,-0.0509425,INVALID,0,VALID,247,VALID,0.345052,
2006-05-23, 10:16:00,VALID,918.31,VALID,0,VALID,56.7263,VALID,-0.0339617,INVALID,0,VALID,325,VALID,0.464453,
2006-05-23, 10:17:00,VALID,918.309,VALID,0,VALID,56.3842,VALID,0.0169808,VALID,-0.0016,VALID,338,VALID,0.373728,
2006-05-23, 10:18:00,VALID,918.304,VALID,0,VALID,58.2764,VALID,-0.0339617,INVALID,0,VALID,4,VALID,0.92223,
2006-05-23, 10:19:00,VALID,918.322,VALID,0,VALID,58.7278,VALID,0.0849042,VALID,-0.0016,VALID,22,VALID,1.19749,
2006-05-23, 10:20:00,VALID,918.336,VALID,0,VALID,59.684,VALID,-0.0509425,VALID,24.8348,VALID,349,VALID,0.933594,
2006-05-23, 10:21:00,VALID,918.339,VALID,0,VALID,59.3636,VALID,-0.0339617,VALID,25.6028,VALID,5,VALID,0.803597,
2006-05-23, 10:22:00,VALID,918.355,VALID,0,VALID,59.6472,VALID,-0.0169808,INVALID,0,VALID,25,VALID,0.774346,
2006-05-23, 10:23:00,VALID,918.354,VALID,0,VALID,59.3623,VALID,0,INVALID,0,VALID,29,VALID,0.673611,
2006-05-23, 10:24:00,VALID,918.348,VALID,0,VALID,58.312,VALID,0,INVALID,0,VALID,44,VALID,0.286337,
2006-05-23, 10:25:00,VALID,918.346,VALID,0,VALID,56.032,VALID,0,INVALID,0,VALID,298,VALID,0.403963,
2006-05-23, 10:26:00,VALID,918.333,VALID,0,VALID,56.2749,VALID,0.0169808,INVALID,0,VALID,20,VALID,0.557465,
2006-05-23, 10:27:00,VALID,918.313,VALID,0,VALID,57.3341,VALID,0.0849042,VALID,25.9847,VALID,28,VALID,0.96968,
2006-05-23, 10:28:00,VALID,918.313,VALID,0,VALID,57.3812,VALID,0,VALID,25.6487,VALID,23,VALID,0.948661,
2006-05-23, 10:29:00,VALID,918.298,VALID,0,VALID,57.2985,VALID,164.052,VALID,24.3424,VALID,14,VALID,0.842722,
2006-05-23, 10:30:00,VALID,918.294,VALID,0,VALID,56.5889,VALID,2.29241,VALID,23.9227,VALID,45,VALID,0.50686,
2006-05-23, 10:31:00,VALID,918.285,VALID,0,VALID,61.1833,VALID,92.6474,VALID,25.3402,VALID,23,VALID,0.248698,
2006-05-23, 10:32:00,VALID,918.299,VALID,0,VALID,55.0312,VALID,4.00748,VALID,-2.13234,VALID,17,VALID,0.991279,
2006-05-23, 10:33:00,VALID,918.297,VALID,0,VALID,53.9313,VALID,0,INVALID,0,VALID,355,VALID,0.643466,
2006-05-23, 10:34:00,VALID,918.309,VALID,0,VALID,54.6421,VALID,0,INVALID,0,VALID,350,VALID,0.949886,
2006-05-23, 10:35:00,VALID,918.309,VALID,0,VALID,53.9377,VALID,0,INVALID,0,VALID,347,VALID,0.289595,
2006-05-23, 10:36:00,VALID,918.309,VALID,0,VALID,53.2866,VALID,0,INVALID,0,VALID,299,VALID,0.687682,
2006-05-23, 10:37:00,VALID,918.3,VALID,0,VALID,55.1457,VALID,0,INVALID,0,VALID,4,VALID,0.921512,
2006-05-23, 10:38:00,VALID,918.275,VALID,0,VALID,55.7599,VALID,0,INVALID,0,VALID,13,VALID,0.995808,
2006-05-23, 10:39:00,VALID,918.28,VALID,0,VALID,56.8013,VALID,0,INVALID,0,VALID,359,VALID,1.26935,
2006-05-23, 10:40:00,VALID,918.275,VALID,0,VALID,56.8649,VALID,0,INVALID,0,VALID,7,VALID,1.10652,
2006-05-23, 10:41:00,VALID,918.261,VALID,0,VALID,55.9748,VALID,0,INVALID,0,VALID,350,VALID,0.991319,
2006-05-23, 10:42:00,VALID,918.274,VALID,0,VALID,57.3163,VALID,0,INVALID,0,VALID,10,VALID,0.813072,
2006-05-23, 10:43:00,VALID,918.259,VALID,0,VALID,55.4534,VALID,0,INVALID,0,VALID,309,VALID,0.827398,
2006-05-23, 10:44:00,VALID,918.267,VALID,0,VALID,54.4043,VALID,0,INVALID,0,VALID,43,VALID,0.825036,
2006-05-23, 10:45:00,VALID,918.249,VALID,0,VALID,56.2075,VALID,0,INVALID,0,VALID,21,VALID,1.31892,
2006-05-23, 10:46:00,VALID,918.265,VALID,0,VALID,57.7219,VALID,0,INVALID,0,VALID,12,VALID,0.731286,
2006-05-23, 10:47:00,VALID,918.259,VALID,0,VALID,56.7632,VALID,0,INVALID,0,VALID,28,VALID,1.66193,
2006-05-23, 10:48:00,VALID,918.252,VALID,0,VALID,57.7181,VALID,0.0679233,VALID,-0.0016,VALID,12,VALID,1.60191,
2006-05-23, 10:49:00,VALID,918.247,VALID,0,VALID,56.1617,VALID,0,INVALID,0,VALID,27,VALID,1.26935,
2006-05-23, 10:50:00,VALID,918.228,VALID,0,VALID,56.9704,VALID,0,INVALID,0,VALID,56,VALID,0.761111,
2006-05-23, 10:51:00,VALID,918.226,VALID,0,VALID,55.5767,VALID,-0.0169808,INVALID,0,VALID,349,VALID,0.552083,
2006-05-23, 10:52:00,VALID,918.229,VALID,0,VALID,54.7413,VALID,0,INVALID,0,VALID,12,VALID,0.863653,
2006-05-23, 10:53:00,VALID,918.216,VALID,0,VALID,55.3822,VALID,0,INVALID,0,VALID,4,VALID,1.20108,
2006-05-23, 10:54:00,VALID,918.215,VALID,0,VALID,55.8705,VALID,0,INVALID,0,VALID,356,VALID,0.99295,
2006-05-23, 10:55:00,VALID,918.214,VALID,0,VALID,55.99,VALID,0,INVALID,0,VALID,19,VALID,1.41164,
2006-05-23, 10:56:00,VALID,918.197,VALID,0,VALID,54.7566,VALID,-0.0169808,INVALID,0,VALID,71,VALID,0.551525,
2006-05-23, 10:57:00,VALID,918.195,VALID,0,VALID,54.5887,VALID,0,INVALID,0,VALID,347,VALID,0.827083,
2006-05-23, 10:58:00,VALID,918.193,VALID,0,VALID,55.6874,VALID,0.0169808,INVALID,0,VALID,292,VALID,0.485577,
2006-05-23, 10:59:00,VALID,918.193,VALID,0,VALID,56.2011,VALID,0,VALID,-0.0016,VALID,18,VALID,0.829613,
2006-05-23, 11:00:00,VALID,918.168,VALID,0,VALID,56.8751,VALID,0,INVALID,0,VALID,13,VALID,1.71822,
2006-05-23, 11:01:00,VALID,918.165,VALID,0,VALID,55.5221,VALID,0,INVALID,0,VALID,358,VALID,1.80041,
2006-05-23, 11:02:00,VALID,918.165,VALID,0,VALID,56.6843,VALID,0,VALID,-0.0016,VALID,17,VALID,1.59666,
2006-05-23, 11:03:00,VALID,918.143,VALID,0,VALID,56.9374,VALID,0,INVALID,0,VALID,28,VALID,1.44459,
2006-05-23, 11:04:00,VALID,918.119,VALID,0,VALID,58.2369,VALID,0,INVALID,0,VALID,35,VALID,1.2258,
2006-05-23, 11:05:00,VALID,918.096,VALID,0,VALID,59.3178,VALID,0,INVALID,0,VALID,19,VALID,1.46113,
2006-05-23, 11:06:00,VALID,918.092,VALID,0,VALID,57.7486,VALID,0,VALID,-0.0016,VALID,302,VALID,0.65067,
2006-05-23, 11:07:00,VALID,918.077,VALID,0,VALID,56.5635,VALID,0.0169808,VALID,-0.0016,VALID,25,VALID,0.75,
2006-05-23, 11:08:00,VALID,918.058,VALID,0,VALID,58.4417,VALID,0,VALID,-0.0016,VALID,5,VALID,0.947917,
2006-05-23, 11:09:00,VALID,918.031,VALID,0,VALID,56.7072,VALID,0,VALID,-0.0016,VALID,357,VALID,1.28016,
2006-05-23, 11:10:00,VALID,918.006,VALID,0,VALID,59.3992,VALID,0,VALID,-0.0016,VALID,345,VALID,0.883358,
2006-05-23, 11:11:00,VALID,917.993,VALID,0,VALID,58.5078,VALID,-0.0849042,VALID,-0.0016,VALID,18,VALID,1.09546,
2006-05-23, 11:12:00,VALID,917.968,VALID,0,VALID,58.6439,VALID,0.0169808,VALID,-0.0016,VALID,23,VALID,1.17292,
2006-05-23, 11:13:00,VALID,917.974,VALID,0,VALID,57.5159,VALID,0,INVALID,0,VALID,17,VALID,0.995236,
2006-05-23, 11:14:00,VALID,917.962,VALID,0,VALID,57.5312,VALID,0,VALID,-0.0016,VALID,22,VALID,1.4613,
2006-05-23, 11:15:00,VALID,917.936,VALID,0,VALID,57.6558,VALID,0.0169808,INVALID,0,VALID,16,VALID,1.71271,
2006-05-23, 11:16:00,VALID,917.934,VALID,0,VALID,59.4246,VALID,0,INVALID,0,VALID,24,VALID,1.25073,
2006-05-23, 11:17:00,VALID,917.933,VALID,0,VALID,58.8842,VALID,0,INVALID,0,VALID,20,VALID,1.31516,
2006-05-23, 11:18:00,VALID,917.927,VALID,0,VALID,58.2268,VALID,0,INVALID,0,VALID,63,VALID,1.03107,
2006-05-23, 11:19:00,VALID,917.914,VALID,0,VALID,56.6182,VALID,-0.0169808,INVALID,0,VALID,13,VALID,1.37314,
2006-05-23, 11:20:00,VALID,917.905,VALID,0,VALID,57.3684,VALID,0,INVALID,0,VALID,17,VALID,1.60882,
2006-05-23, 11:21:00,VALID,917.895,VALID,0,VALID,58.0526,VALID,0,INVALID,0,VALID,28,VALID,0.942187,
2006-05-23, 11:22:00,VALID,917.896,VALID,0,VALID,59.047,VALID,0,INVALID,0,VALID,27,VALID,1.3395,
2006-05-23, 11:23:00,VALID,917.89,VALID,0,VALID,57.6889,VALID,-0.0169808,INVALID,0,VALID,25,VALID,0.801669,
2006-05-23, 11:24:00,VALID,917.881,VALID,0,VALID,56.1922,VALID,0,INVALID,0,VALID,5,VALID,1.31307,
2006-05-23, 11:25:00,VALID,917.876,VALID,0,VALID,56.8051,VALID,0,INVALID,0,VALID,340,VALID,0.858487,
2006-05-23, 11:26:00,VALID,917.877,VALID,0,VALID,56.9475,VALID,0,INVALID,0,VALID,24,VALID,1.66406,
2006-05-23, 11:27:00,VALID,917.87,VALID,0,VALID,58.4048,VALID,0,INVALID,0,VALID,348,VALID,0.741806,
2006-05-23, 11:28:00,VALID,917.857,VALID,0,VALID,57.4129,VALID,-0.0339617,INVALID,0,VALID,345,VALID,0.275724,
2006-05-23, 11:29:00,VALID,917.844,VALID,0,VALID,57.6698,VALID,-0.0169808,INVALID,0,VALID,11,VALID,1.37233,
2006-05-23, 11:30:00,VALID,917.833,VALID,0,VALID,58.3399,VALID,0,INVALID,0,VALID,28,VALID,1.3564,
2006-05-23, 11:31:00,VALID,917.838,VALID,0,VALID,58.9045,VALID,-0.0509425,INVALID,0,VALID,338,VALID,0.611049,
2006-05-23, 11:32:00,VALID,917.834,VALID,0,VALID,57.0022,VALID,0,INVALID,0,VALID,1,VALID,0.381641,
2006-05-23, 11:33:00,VALID,917.821,VALID,0,VALID,56.1528,VALID,0,VALID,-0.0016,VALID,124,VALID,0.875801,
2006-05-23, 11:34:00,VALID,917.83,VALID,0,VALID,58.3412,VALID,0.0679233,VALID,-0.0016,VALID,41,VALID,0.997049,
2006-05-23, 11:35:00,VALID,917.825,VALID,0,VALID,58.6922,VALID,0.0169808,VALID,-0.0016,VALID,25,VALID,1.14971,
2006-05-23, 11:36:00,VALID,917.84,VALID,0,VALID,61.2023,VALID,0.0509425,VALID,-0.0016,VALID,14,VALID,1.0641,
2006-05-23, 11:37:01,VALID,917.843,VALID,0,VALID,59.3407,VALID,0.0169808,VALID,-0.0016,VALID,358,VALID,0.795873,
2006-05-23, 11:38:00,VALID,917.84,VALID,0,VALID,58.4506,VALID,0.0339617,VALID,-0.0016,VALID,32,VALID,1.10842,
2006-05-23, 11:39:00,VALID,917.846,VALID,0,VALID,59.2123,VALID,-0.0849042,VALID,-0.0016,VALID,336,VALID,0.796693,
2006-05-23, 11:40:01,VALID,917.856,VALID,0,VALID,58.2217,VALID,0,VALID,-0.0016,VALID,197,VALID,0.507267,
2006-05-23, 11:41:00,VALID,917.844,VALID,0,VALID,59.9396,VALID,0,VALID,-0.0016,VALID,44,VALID,0.785511,
2006-05-23, 11:42:01,VALID,917.848,VALID,0,VALID,59.6217,VALID,0.0169808,INVALID,0,VALID,344,VALID,0.793241,
2006-05-23, 11:43:01,VALID,917.835,VALID,0,VALID,57.9445,VALID,0.0339617,VALID,-0.0016,VALID,11,VALID,0.65189,
2006-05-23, 11:44:01,VALID,917.821,VALID,0,VALID,58.2993,VALID,0.0339617,VALID,-0.0016,VALID,344,VALID,0.535065,
2006-05-23, 11:45:00,VALID,917.807,VALID,0,VALID,55.6314,VALID,0.0169808,VALID,-0.0016,VALID,7,VALID,0.392756,
2006-05-23, 11:46:00,VALID,917.784,VALID,0,VALID,56.842,VALID,0.0169808,VALID,-0.0016,VALID,324,VALID,0.785342,
2006-05-23, 11:47:00,VALID,917.782,VALID,0,VALID,57.5426,VALID,0.0169808,VALID,-0.0016,VALID,27,VALID,0.40642,
2006-05-23, 11:48:01,VALID,917.765,VALID,0,VALID,58.1746,VALID,0,VALID,-0.0016,VALID,20,VALID,1.66531,
2006-05-23, 11:49:00,VALID,917.749,VALID,0,VALID,58.0068,VALID,0.0339617,VALID,-0.0016,VALID,356,VALID,1.29018,
2006-05-23, 11:50:00,VALID,917.733,VALID,0,VALID,55.929,VALID,0.0169808,VALID,-0.0016,VALID,5,VALID,1.55451,
2006-05-23, 11:51:01,VALID,917.728,VALID,0,VALID,58.0119,VALID,0.0339617,INVALID,0,VALID,19,VALID,1.55362,
2006-05-23, 11:52:00,VALID,917.709,VALID,0,VALID,60.9467,VALID,0.0169808,INVALID,0,VALID,27,VALID,1.48573,
2006-05-23, 11:53:00,VALID,917.699,VALID,0,VALID,58.5739,VALID,0,VALID,-0.0016,VALID,10,VALID,1.94186,
2006-05-23, 11:54:01,VALID,917.689,VALID,0,VALID,58.2115,VALID,0,VALID,-0.0016,VALID,7,VALID,1.27441,
2006-05-23, 11:55:00,VALID,917.683,VALID,0,VALID,58.6896,VALID,0,VALID,-0.0016,VALID,17,VALID,1.76989,
2006-05-23, 11:56:01,VALID,917.679,VALID,0,VALID,59.2669,VALID,0.0169808,VALID,-0.0016,VALID,14,VALID,1.22274,
2006-05-23, 11:57:00,VALID,917.662,VALID,0,VALID,59.8125,VALID,0.0339617,VALID,-0.0016,VALID,19,VALID,1.87557,
2006-05-23, 11:58:01,VALID,917.64,VALID,0,VALID,60.1075,VALID,0,VALID,-0.0016,VALID,22,VALID,1.92109,
2006-05-23, 11:59:00,VALID,917.641,VALID,0,VALID,60.3414,VALID,0,INVALID,0,VALID,18,VALID,1.52024,
2006-05-23, 12:00:00,VALID,917.642,VALID,0,VALID,58.0068,VALID,0.0169808,VALID,-0.0016,VALID,1,VALID,1.6436,
2006-05-23, 12:01:00,VALID,917.644,VALID,0,VALID,59.2517,VALID,0,INVALID,0,VALID,23,VALID,1.67245,
2006-05-23, 12:02:00,VALID,917.632,VALID,0,VALID,61.154,VALID,0,INVALID,0,VALID,9,VALID,1.20781,
2006-05-23, 12:03:00,VALID,917.615,VALID,0,VALID,61.1705,VALID,0,INVALID,0,VALID,335,VALID,0.943892,
2006-05-23, 12:04:01,VALID,917.583,VALID,0,VALID,59.6637,VALID,0,INVALID,0,VALID,22,VALID,1.85901,
2006-05-23, 12:05:00,VALID,917.584,VALID,0,VALID,60.9531,VALID,0,INVALID,0,VALID,29,VALID,1.53182,
2006-05-23, 12:06:01,VALID,917.575,VALID,0,VALID,61.7555,VALID,0,INVALID,0,VALID,28,VALID,2.17597,
2006-05-23, 12:07:00,VALID,917.569,VALID,0,VALID,61.2939,VALID,0,INVALID,0,VALID,7,VALID,1.13711,
2006-05-23, 12:08:00,VALID,917.546,VALID,0,VALID,60.5983,VALID,0,VALID,-0.0016,VALID,358,VALID,1.47324,
2006-05-23, 12:09:00,VALID,917.516,VALID,0,VALID,58.7697,VALID,0.0169808,INVALID,0,VALID,6,VALID,1.77708,
2006-05-23, 12:10:00,VALID,917.491,VALID,0,VALID,60.3872,VALID,0,INVALID,0,VALID,20,VALID,1.63597,
2006-05-23, 12:11:00,VALID,917.492,VALID,0,VALID,61.1756,VALID,0,INVALID,0,VALID,17,VALID,1.88969,
2006-05-23, 12:12:00,VALID,917.465,VALID,0,VALID,61.1629,VALID,0,INVALID,0,VALID,25,VALID,1.37946,
2006-05-23, 12:13:00,VALID,917.432,VALID,0,VALID,60.4445,VALID,0.0169808,INVALID,0,VALID,27,VALID,1.81938,
2006-05-23, 12:14:00,VALID,917.412,VALID,0,VALID,59.8888,VALID,0,INVALID,0,VALID,14,VALID,1.92436,
2006-05-23, 12:15:01,VALID,917.41,VALID,0,VALID,61.1845,VALID,0,INVALID,0,VALID,23,VALID,1.75091,
2006-05-23, 12:16:00,VALID,917.393,VALID,0,VALID,61.4058,VALID,-0.0169808,INVALID,0,VALID,31,VALID,1.39862,
2006-05-23, 12:17:01,VALID,917.385,VALID,0,VALID,60.2791,VALID,0,INVALID,0,VALID,358,VALID,1.70403,
2006-05-23, 12:18:00,VALID,917.39,VALID,0,VALID,60.2957,VALID,0,INVALID,0,VALID,5,VALID,1.47321,
2006-05-23, 12:19:00,VALID,917.356,VALID,0,VALID,58.7291,VALID,0,INVALID,0,VALID,11,VALID,2.24085,
2006-05-23, 12:20:00,VALID,917.347,VALID,0,VALID,60.5831,VALID,0,INVALID,0,VALID,26,VALID,2.23361,
2006-05-23, 12:21:00,VALID,917.336,VALID,0,VALID,61.8292,VALID,0,INVALID,0,VALID,27,VALID,2.11365,
2006-05-23, 12:22:01,VALID,917.33,VALID,0,VALID,61.8025,VALID,0,INVALID,0,VALID,41,VALID,1.31068,
2006-05-23, 12:23:00,VALID,917.309,VALID,0,VALID,61.4058,VALID,0.0169808,VALID,-0.0016,VALID,6,VALID,1.17224,
2006-05-23, 12:24:00,VALID,917.298,VALID,0,VALID,60.5246,VALID,0.0849042,VALID,-0.0016,VALID,4,VALID,1.92541,
2006-05-23, 12:25:00,VALID,917.278,VALID,0,VALID,62.0327,VALID,-0.0169808,INVALID,0,VALID,28,VALID,1.93679,
2006-05-23, 12:26:00,VALID,917.268,VALID,0,VALID,62.8592,VALID,-0.0339617,INVALID,0,VALID,24,VALID,1.98576,
2006-05-23, 12:27:00,VALID,917.24,VALID,0,VALID,62.1204,VALID,0,INVALID,0,VALID,16,VALID,1.61979,
2006-05-23, 12:28:01,VALID,917.223,VALID,0,VALID,62.5744,VALID,0,INVALID,0,VALID,19,VALID,1.69684,
2006-05-23, 12:29:01,VALID,917.197,VALID,0,VALID,61.3104,VALID,0,INVALID,0,VALID,19,VALID,1.72599,
2006-05-23, 12:30:01,VALID,917.158,VALID,0,VALID,61.1947,VALID,0,INVALID,0,VALID,2,VALID,1.39379,
2006-05-23, 12:31:00,VALID,917.111,VALID,0,VALID,58.6044,VALID,-0.0339617,INVALID,0,VALID,344,VALID,1.48746,
2006-05-23, 12:32:01,VALID,917.058,VALID,0,VALID,59.7476,VALID,0,INVALID,0,VALID,356,VALID,2.04815,
2006-05-23, 12:33:00,VALID,917.046,VALID,0,VALID,63.153,VALID,0,INVALID,0,VALID,24,VALID,1.84609,
2006-05-23, 12:34:01,VALID,917.014,VALID,0,VALID,64.1016,VALID,0,INVALID,0,VALID,13,VALID,1.34819,
2006-05-23, 12:35:00,VALID,916.968,VALID,0,VALID,62.5235,VALID,0,INVALID,0,VALID,18,VALID,1.37233,
2006-05-23, 13:07:00,VALID,916.207,VALID,0,VALID,59.8407,VALID,0.020377,VALID,-0.0016,VALID,355,VALID,0.94181,
2006-05-23, 13:08:00,VALID,916.208,VALID,0,VALID,61.0459,VALID,0,VALID,-0.0016,VALID,11,VALID,0.679116,
2006-05-23, 13:09:00,VALID,916.193,VALID,0,VALID,60.4127,VALID,0,INVALID,0,VALID,9,VALID,0.777249,
2006-05-23, 13:10:00,VALID,916.203,VALID,0,VALID,59.2949,VALID,0,VALID,-0.0016,VALID,10,VALID,1.00893,
2006-05-23, 13:11:00,VALID,916.202,VALID,0,VALID,59.665,VALID,0,INVALID,0,VALID,33,VALID,0.319965,
2006-05-23, 13:12:00,VALID,916.199,VALID,0,VALID,59.6713,VALID,-0.0509425,VALID,-0.0016,VALID,47,VALID,0.527043,
2006-05-23, 13:13:00,VALID,916.198,VALID,0,VALID,55.9722,VALID,0.0169808,VALID,-0.0016,VALID,256,VALID,0.753374,
2006-05-23, 13:14:00,VALID,916.176,VALID,0,VALID,57.9597,VALID,0,VALID,-0.0016,VALID,309,VALID,0.382254,
2006-05-23, 13:15:00,VALID,916.178,VALID,0,VALID,59.258,VALID,0.0169808,INVALID,0,VALID,271,VALID,0.268787,
2006-05-23, 13:16:00,VALID,916.178,VALID,0,VALID,60.2423,VALID,0.0339617,VALID,-0.0016,VALID,7,VALID,0.448686,
2006-05-23, 13:17:00,VALID,916.198,VALID,0,VALID,59.8659,VALID,0.0169808,INVALID,0,VALID,357,VALID,0.641768,
2006-05-23, 13:18:00,VALID,916.171,VALID,0,VALID,56.8229,VALID,0,VALID,-0.0016,VALID,203,VALID,0.598437,
2006-05-23, 13:19:00,VALID,916.175,VALID,0,VALID,58.5917,VALID,0.0339617,VALID,-0.0016,VALID,221,VALID,0.508594,
2006-05-23, 13:20:00,VALID,916.167,VALID,0,VALID,60.3732,VALID,0.0169808,INVALID,0,VALID,325,VALID,1.07908,
2006-05-23, 13:21:00,VALID,916.174,VALID,0,VALID,59.7565,VALID,0,VALID,-0.0016,VALID,292,VALID,0.612749,
2006-05-23, 13:22:00,VALID,916.152,VALID,0,VALID,57.9648,VALID,0.0169808,VALID,-0.0016,VALID,165,VALID,0.679348,
2006-05-23, 13:23:00,VALID,916.157,VALID,0,VALID,59.9104,VALID,0,VALID,-0.0016,VALID,51,VALID,0.496484,
2006-05-23, 13:24:00,VALID,916.161,VALID,0,VALID,60.6873,VALID,0,VALID,-0.0016,VALID,58,VALID,0.271984,
2006-05-23, 13:25:00,VALID,916.162,VALID,0,VALID,58.1568,VALID,0.0339617,INVALID,0,VALID,196,VALID,0.611506,
2006-05-23, 13:26:00,VALID,916.154,VALID,0,VALID,60.5754,VALID,0,VALID,-0.0016,VALID,290,VALID,0.369271,
2006-05-23, 13:27:00,VALID,916.169,VALID,0,VALID,60.7471,VALID,0.0339617,VALID,-0.0016,VALID,2,VALID,0.28683,
2006-05-23, 13:28:00,VALID,916.159,VALID,0,VALID,58.7799,VALID,0.0169808,INVALID,0,VALID,350,VALID,0.817708,
2006-05-23, 13:29:00,VALID,916.153,VALID,0,VALID,58.8219,VALID,0.0169808,VALID,-0.0016,VALID,340,VALID,1.16035,
2006-05-23, 13:30:00,VALID,916.139,VALID,0,VALID,60.0452,VALID,0,INVALID,0,VALID,10,VALID,1.13967,
2006-05-23, 13:31:00,VALID,916.133,VALID,0,VALID,60.6301,VALID,0.0169808,INVALID,0,VALID,16,VALID,1.1372,
2006-05-23, 13:32:00,VALID,916.11,VALID,0,VALID,61.1006,VALID,0,INVALID,0,VALID,17,VALID,1.30938,
2006-05-23, 13:33:00,VALID,916.09,VALID,0,VALID,59.6675,VALID,0,INVALID,0,VALID,9,VALID,0.935683,
2006-05-23, 13:34:00,VALID,916.092,VALID,0,VALID,59.1258,VALID,0,INVALID,0,VALID,13,VALID,1.44826,
2006-05-23, 13:35:00,VALID,916.076,VALID,0,VALID,59.6955,VALID,0,VALID,-0.0016,VALID,1,VALID,1.12464,
2006-05-23, 13:36:00,VALID,916.066,VALID,0,VALID,59.8582,VALID,0,VALID,-0.0016,VALID,7,VALID,0.527158,
2006-05-23, 13:37:00,VALID,916.035,VALID,0,VALID,59.8659,VALID,0,VALID,-0.0016,VALID,23,VALID,0.906076,
2006-05-23, 13:38:00,VALID,916.001,VALID,0,VALID,60.1939,VALID,0,INVALID,0,VALID,343,VALID,0.544444,
2006-05-23, 13:39:00,VALID,915.96,VALID,0,VALID,59.4094,VALID,0,INVALID,0,VALID,327,VALID,0.51441,
2006-05-23, 13:40:00,VALID,915.944,VALID,0,VALID,59.8392,VALID,0,INVALID,0,VALID,322,VALID,0.351953,
2006-05-23, 13:41:00,VALID,915.906,VALID,0,VALID,58.682,VALID,-0.0169808,INVALID,0,VALID,168,VALID,0.540698,
2006-05-23, 13:42:00,VALID,915.868,VALID,0,VALID,59.3115,VALID,0,INVALID,0,VALID,87,VALID,0.317073,
2006-05-23, 13:43:00,VALID,915.835,VALID,0,VALID,58.1645,VALID,0,INVALID,0,VALID,281,VALID,0.205729,
2006-05-23, 13:44:00,VALID,915.804,VALID,0,VALID,57.8873,VALID,-0.0169808,INVALID,0,VALID,219,VALID,0.11756,
2006-05-23, 13:45:00,VALID,915.789,VALID,0,VALID,58.4061,VALID,0,INVALID,0,VALID,161,VALID,0.313772,
2006-05-23, 13:46:00,VALID,915.768,VALID,0,VALID,58.3196,VALID,0,INVALID,0,VALID,348,VALID,0.535857,
2006-05-23, 13:47:00,VALID,915.732,VALID,0,VALID,58.4188,VALID,0,INVALID,0,VALID,242,VALID,0.573438,
2006-05-23, 13:48:00,VALID,915.691,VALID,0,VALID,58.7354,VALID,0,INVALID,0,VALID,237,VALID,0.696456,
2006-05-23, 13:49:00,VALID,915.671,VALID,0,VALID,59.2835,VALID,0.0169808,INVALID,0,VALID,303,VALID,0.301711,
2006-05-23, 13:50:00,VALID,915.653,VALID,0,VALID,59.4844,VALID,0.0339617,VALID,-0.0016,VALID,6,VALID,0.877604,
2006-05-23, 13:51:00,VALID,915.647,VALID,0,VALID,59.1665,VALID,0.0169808,VALID,-0.0016,VALID,350,VALID,0.94549,
2006-05-23, 13:52:00,VALID,915.634,VALID,0,VALID,59.0559,VALID,0.0169808,VALID,-0.0016,VALID,324,VALID,0.523047,
2006-05-23, 13:53:00,VALID,915.624,VALID,0,VALID,57.9915,VALID,0.0169808,VALID,-0.0016,VALID,321,VALID,0.405362,
2006-05-23, 13:54:00,VALID,915.598,VALID,0,VALID,58.2242,VALID,0.0339617,VALID,-0.0016,VALID,39,VALID,0.511133,
2006-05-23, 13:55:00,VALID,915.563,VALID,0,VALID,56.6182,VALID,-0.101885,INVALID,0,VALID,179,VALID,0.71875,
2006-05-23, 13:56:00,VALID,915.553,VALID,0,VALID,55.4559,VALID,-0.0679233,VALID,-0.0016,VALID,272,VALID,0.727896,
2006-05-23, 13:57:00,VALID,915.539,VALID,0,VALID,57.0137,VALID,0.0509425,VALID,-0.0016,VALID,319,VALID,0.397569,
2006-05-23, 13:58:00,VALID,915.521,VALID,0,VALID,56.8827,VALID,0.0169808,VALID,-0.0016,VALID,2,VALID,0.608507,
2006-05-23, 13:59:00,VALID,915.508,VALID,0,VALID,58.6896,VALID,0,VALID,-0.0016,VALID,27,VALID,0.776526,
2006-05-23, 14:00:00,VALID,915.485,VALID,0,VALID,56.4186,VALID,0,INVALID,0,VALID,19,VALID,1.16087,
2006-05-23, 14:01:00,VALID,915.466,VALID,0,VALID,57.638,VALID,0,INVALID,0,VALID,22,VALID,0.754179,
2006-05-23, 14:02:00,VALID,915.43,VALID,0,VALID,58.1861,VALID,-0.0169808,INVALID,0,VALID,19,VALID,0.496449,
2006-05-23, 14:03:00,VALID,915.412,VALID,0,VALID,58.1505,VALID,0,INVALID,0,VALID,43,VALID,0.852325,
2006-05-23, 14:04:00,VALID,915.39,VALID,0,VALID,57.0493,VALID,-0.0169808,INVALID,0,VALID,116,VALID,0.124822,
2006-05-23, 14:05:00,VALID,915.373,VALID,0,VALID,54.7973,VALID,0,INVALID,0,VALID,309,VALID,0.375953,
2006-05-23, 14:06:00,VALID,915.34,VALID,0,VALID,54.2594,VALID,-0.0169808,VALID,-0.0016,VALID,258,VALID,0.515092,
2006-05-23, 14:07:00,VALID,915.309,VALID,0,VALID,54.2772,VALID,0,INVALID,0,VALID,234,VALID,0.859933,